Simultaneous Nadir Overpasses (SNOs) Predictions

Prediction of SNOs between NOAA-20 and NOAA-19 Satellite Orbit:

Table of predicted SNOs for the next 14.0 days since TLE Epoch: 10/3/2020
Index Date (NOAA-20) Time (NOAA-20) Lat,Lon (NOAA-20) SZA (NOAA-20 ) Date (NOAA-19) Time (NOAA-19) Lat,Lon (NOAA-19) SZA (NOAA-19 ) Distance(km) Time Diff (sec)
1 10/16/2020 12:49:13 78.94, -42.49 89.20 10/16/2020 12:47:59 78.94, -42.98 89.27 10.54 74
2 10/16/2020 13:39:59 -78.98, 124.55 90.73 10/16/2020 13:38:59 -78.97, 124.50 90.72 1.33 60
3 10/16/2020 14:30:44 78.97, -68.12 89.28 10/16/2020 14:29:58 78.99, -68.09 89.31 1.70 46
4 10/16/2020 15:21:29 -78.98, 99.16 90.71 10/16/2020 15:20:59 -78.99, 99.13 90.69 0.98 30
5 10/16/2020 16:12:14 78.98, -93.51 89.31 10/16/2020 16:11:58 79.00, -93.46 89.34 3.30 16
6 10/16/2020 17:02:59 -78.98, 73.77 90.68 10/16/2020 17:02:59 -79.00, 73.77 90.66 2.41 0
7 10/16/2020 17:53:45 79.01,-119.15 89.39 10/16/2020 17:53:59 78.99,-119.09 89.36 3.12 14
8 10/16/2020 18:44:30 -79.02, 48.14 90.60 10/16/2020 18:45:00 -78.99, 48.14 90.64 3.55 30
9 10/16/2020 19:35:15 79.02,-144.53 89.42 10/16/2020 19:35:59 79.00,-144.46 89.39 2.01 44
10 10/16/2020 20:26:00 -79.02, 22.75 90.57 10/16/2020 20:27:00 -79.00, 22.78 90.61 2.00 60
11 10/16/2020 21:16:45 79.02,-169.92 89.45 10/16/2020 21:17:59 79.02,-169.83 89.42 1.88 74
